Time,TemperatureF,DewpointF,PressureIn,WindDirection,WindDirectionDegrees,WindSpeedMPH,WindSpeedGustMPH,Humidity,HourlyPrecipIn,Conditions,Clouds,dailyrainin,SolarRadiationWatts/m^2,SoftwareType,DateUTC
2013-10-03 00:02:00,49.0,34.0,-100.00,West,273,26.0,43.0,55,0.00,,,0.00,0.000000,,2013-10-03 07:02:00,
2013-10-03 00:11:00,49.0,34.0,-100.00,West,273,26.0,43.0,55,0.00,,,0.00,0.000000,,2013-10-03 07:11:00,
2013-10-03 00:22:00,49.0,34.0,-100.00,West,273,26.0,43.0,55,0.00,,,0.00,0.000000,,2013-10-03 07:22:00,
2013-10-03 00:52:00,50.0,37.0,-100.00,West,275,25.0,46.0,60,0.00,,,0.00,0.000000,,2013-10-03 07:52:00,
2013-10-03 01:03:00,50.0,37.0,-100.00,West,275,25.0,46.0,60,0.00,,,0.00,0.000000,,2013-10-03 08:03:00,
2013-10-03 01:12:00,50.0,37.0,-100.00,West,275,25.0,46.0,60,0.00,,,0.00,0.000000,,2013-10-03 08:12:00,
2013-10-03 01:22:00,50.0,37.0,-100.00,West,275,25.0,46.0,60,0.00,,,0.00,0.000000,,2013-10-03 08:22:00,
2013-10-03 01:52:00,49.0,34.0,-100.00,WNW,302,27.0,46.0,57,0.00,,,0.00,0.000000,,2013-10-03 08:52:00,
2013-10-03 02:02:00,49.0,34.0,-100.00,WNW,302,27.0,46.0,57,0.00,,,0.00,0.000000,,2013-10-03 09:02:00,
2013-10-03 02:11:00,49.0,34.0,-100.00,WNW,302,27.0,46.0,57,0.00,,,0.00,0.000000,,2013-10-03 09:11:00,
2013-10-03 02:21:00,49.0,34.0,-100.00,WNW,302,27.0,46.0,57,0.00,,,0.00,0.000000,,2013-10-03 09:21:00,
2013-10-03 02:53:00,48.0,34.0,-100.00,NW,325,26.0,47.0,59,0.00,,,0.00,0.000000,,2013-10-03 09:53:00,
2013-10-03 03:03:00,48.0,34.0,-100.00,NW,325,26.0,47.0,59,0.00,,,0.00,0.000000,,2013-10-03 10:03:00,
2013-10-03 03:22:00,48.0,34.0,-100.00,NW,325,26.0,47.0,59,0.00,,,0.00,0.000000,,2013-10-03 10:22:00,
2013-10-03 03:52:00,47.0,31.0,-100.00,NW,314,29.0,48.0,54,0.00,,,0.00,0.000000,,2013-10-03 10:52:00,
2013-10-03 04:03:00,47.0,31.0,-100.00,NW,314,29.0,48.0,54,0.00,,,0.00,0.000000,,2013-10-03 11:03:00,
2013-10-03 04:12:00,47.0,31.0,-100.00,NW,314,29.0,48.0,54,0.00,,,0.00,0.000000,,2013-10-03 11:12:00,
2013-10-03 04:22:00,47.0,31.0,-100.00,NW,314,29.0,48.0,54,0.00,,,0.00,0.000000,,2013-10-03 11:22:00,
2013-10-03 04:52:00,47.0,25.0,-100.00,WNW,297,30.0,41.0,41,0.00,,,-99.99,0.000000,,2013-10-03 11:52:00,
2013-10-03 05:01:00,47.0,25.0,-100.00,WNW,297,30.0,41.0,41,0.00,,,-99.99,0.000000,,2013-10-03 12:01:00,
2013-10-03 05:12:00,47.0,25.0,-100.00,WNW,297,30.0,41.0,41,0.00,,,-99.99,0.000000,,2013-10-03 12:12:00,
2013-10-03 05:22:00,47.0,25.0,-100.00,WNW,297,30.0,41.0,41,0.00,,,-99.99,0.000000,,2013-10-03 12:22:00,
2013-10-03 05:52:00,46.0,22.0,-100.00,NW,307,33.0,47.0,38,0.00,,,0.00,0.000000,,2013-10-03 12:52:00,
2013-10-03 06:01:00,46.0,22.0,-100.00,NW,307,33.0,47.0,38,0.00,,,0.00,0.000000,,2013-10-03 13:01:00,
2013-10-03 06:11:00,46.0,22.0,-100.00,NW,307,33.0,47.0,38,0.00,,,0.00,0.000000,,2013-10-03 13:11:00,
2013-10-03 06:21:00,46.0,22.0,-100.00,NW,307,33.0,47.0,38,0.00,,,0.00,0.000000,,2013-10-03 13:21:00,
2013-10-03 06:52:00,46.0,25.0,-100.00,West,274,25.0,47.0,44,0.00,,,0.00,0.000000,,2013-10-03 13:52:00,
2013-10-03 07:02:00,46.0,25.0,-100.00,West,274,25.0,47.0,44,0.00,,,0.00,0.000000,,2013-10-03 14:02:00,
2013-10-03 07:11:00,46.0,25.0,-100.00,West,274,25.0,47.0,44,0.00,,,0.00,0.000000,,2013-10-03 14:11:00,
2013-10-03 07:21:00,46.0,25.0,-100.00,West,274,25.0,47.0,44,0.00,,,0.00,0.000000,,2013-10-03 14:21:00,
2013-10-03 07:52:00,45.0,25.0,-100.00,WNW,286,31.0,43.0,46,0.00,,,0.00,0.000000,,2013-10-03 14:52:00,
2013-10-03 08:01:00,45.0,25.0,-100.00,WNW,286,31.0,43.0,46,0.00,,,0.00,0.000000,,2013-10-03 15:01:00,
2013-10-03 08:11:00,45.0,25.0,-100.00,WNW,286,31.0,43.0,46,0.00,,,0.00,0.000000,,2013-10-03 15:11:00,
2013-10-03 08:21:00,45.0,25.0,-100.00,WNW,286,31.0,43.0,46,0.00,,,0.00,0.000000,,2013-10-03 15:21:00,
2013-10-03 08:53:00,44.0,22.0,-100.00,West,269,28.0,49.0,41,0.00,,,0.00,36.000000,,2013-10-03 15:53:00,
2013-10-03 09:03:00,44.0,22.0,-100.00,West,269,28.0,49.0,41,0.00,,,0.00,36.000000,,2013-10-03 16:03:00,
2013-10-03 09:12:00,44.0,22.0,-100.00,West,269,28.0,49.0,41,0.00,,,0.00,36.000000,,2013-10-03 16:12:00,
2013-10-03 09:23:00,44.0,22.0,-100.00,West,269,28.0,49.0,41,0.00,,,0.00,36.000000,,2013-10-03 16:23:00,
2013-10-03 09:53:00,47.0,22.0,-100.00,West,270,29.0,50.0,37,0.00,,,0.00,267.000000,,2013-10-03 16:53:00,
2013-10-03 10:03:00,47.0,22.0,-100.00,West,270,29.0,50.0,37,0.00,,,0.00,267.000000,,2013-10-03 17:03:00,
2013-10-03 10:12:00,47.0,22.0,-100.00,West,270,29.0,50.0,37,0.00,,,0.00,267.000000,,2013-10-03 17:12:00,
2013-10-03 10:22:00,47.0,22.0,-100.00,West,270,29.0,50.0,37,0.00,,,0.00,267.000000,,2013-10-03 17:22:00,
2013-10-03 10:52:00,48.0,19.0,-100.00,West,273,28.0,50.0,31,0.00,,,0.00,498.000000,,2013-10-03 17:52:00,
2013-10-03 11:01:00,48.0,19.0,-100.00,West,273,28.0,50.0,31,0.00,,,0.00,498.000000,,2013-10-03 18:01:00,
2013-10-03 11:12:00,48.0,19.0,-100.00,West,273,28.0,50.0,31,0.00,,,0.00,498.000000,,2013-10-03 18:12:00,
2013-10-03 11:22:00,48.0,19.0,-100.00,West,273,28.0,50.0,31,0.00,,,0.00,498.000000,,2013-10-03 18:22:00,
2013-10-03 11:52:00,49.0,16.0,-100.00,West,269,24.0,49.0,27,0.00,,,0.00,704.000000,,2013-10-03 18:52:00,
2013-10-03 12:01:00,49.0,16.0,-100.00,West,269,24.0,49.0,27,0.00,,,0.00,704.000000,,2013-10-03 19:01:00,
2013-10-03 12:11:00,49.0,16.0,-100.00,West,269,24.0,49.0,27,0.00,,,0.00,704.000000,,2013-10-03 19:11:00,
2013-10-03 12:21:00,49.0,16.0,-100.00,West,269,24.0,49.0,27,0.00,,,0.00,704.000000,,2013-10-03 19:21:00,
2013-10-03 13:11:00,52.0,12.0,-100.00,SW,219,15.0,62.0,20,0.00,,,0.00,931.000000,,2013-10-03 20:11:00,
2013-10-03 13:21:00,52.0,12.0,-100.00,SW,219,15.0,62.0,20,0.00,,,0.00,931.000000,,2013-10-03 20:21:00,
2013-10-03 13:52:00,56.0,17.0,-100.00,WNW,297,18.0,57.0,21,0.00,,,0.00,1015.000000,,2013-10-03 20:52:00,
2013-10-03 14:02:00,56.0,17.0,-100.00,WNW,297,18.0,57.0,21,0.00,,,0.00,1015.000000,,2013-10-03 21:02:00,
2013-10-03 14:12:00,56.0,17.0,-100.00,WNW,297,18.0,57.0,21,0.00,,,0.00,1015.000000,,2013-10-03 21:12:00,
2013-10-03 14:21:00,56.0,17.0,-100.00,WNW,297,18.0,57.0,21,0.00,,,0.00,1015.000000,,2013-10-03 21:21:00,
2013-10-03 14:54:00,57.0,21.0,-100.00,West,273,18.0,36.0,24,0.00,,,0.00,1055.000000,,2013-10-03 21:54:00,
2013-10-03 15:04:00,57.0,21.0,-100.00,West,273,18.0,36.0,24,0.00,,,0.00,1055.000000,,2013-10-03 22:04:00,
2013-10-03 15:13:00,57.0,21.0,-100.00,West,273,18.0,36.0,24,0.00,,,0.00,1055.000000,,2013-10-03 22:13:00,
2013-10-03 15:23:00,57.0,21.0,-100.00,West,273,18.0,36.0,24,0.00,,,0.00,1055.000000,,2013-10-03 22:23:00,
2013-10-03 15:54:00,56.0,21.0,-100.00,NW,323,21.0,37.0,25,0.00,,,0.00,992.000000,,2013-10-03 22:54:00,
2013-10-03 16:03:00,56.0,21.0,-100.00,NW,323,21.0,37.0,25,0.00,,,0.00,992.000000,,2013-10-03 23:03:00,
2013-10-03 16:12:00,56.0,21.0,-100.00,NW,323,21.0,37.0,25,0.00,,,0.00,992.000000,,2013-10-03 23:12:00,
2013-10-03 16:21:00,56.0,21.0,-100.00,NW,323,21.0,37.0,25,0.00,,,0.00,992.000000,,2013-10-03 23:21:00,
2013-10-03 16:52:00,55.0,22.0,-100.00,NW,318,25.0,34.0,27,0.00,,,0.00,849.000000,,2013-10-03 23:52:00,
2013-10-03 17:02:00,55.0,22.0,-100.00,NW,318,25.0,34.0,27,0.00,,,0.00,849.000000,,2013-10-04 00:02:00,
2013-10-03 17:12:00,55.0,22.0,-100.00,NW,318,25.0,34.0,27,0.00,,,0.00,849.000000,,2013-10-04 00:12:00,
2013-10-03 17:21:00,55.0,22.0,-100.00,NW,318,25.0,34.0,27,0.00,,,0.00,849.000000,,2013-10-04 00:21:00,
2013-10-03 17:52:00,55.0,23.0,-100.00,NW,316,19.0,35.0,28,0.00,,,0.00,639.000000,,2013-10-04 00:52:00,
2013-10-03 18:02:00,55.0,23.0,-100.00,NW,316,19.0,35.0,28,0.00,,,0.00,639.000000,,2013-10-04 01:02:00,
2013-10-03 18:12:00,55.0,23.0,-100.00,NW,316,19.0,35.0,28,0.00,,,0.00,639.000000,,2013-10-04 01:12:00,
2013-10-03 18:21:00,55.0,23.0,-100.00,NW,316,19.0,35.0,28,0.00,,,0.00,639.000000,,2013-10-04 01:21:00,
2013-10-03 18:52:00,53.0,25.0,-100.00,NNW,348,10.0,32.0,33,0.00,,,0.00,382.000000,,2013-10-04 01:52:00,
2013-10-03 19:02:00,53.0,25.0,-100.00,NNW,348,10.0,32.0,33,0.00,,,0.00,382.000000,,2013-10-04 02:02:00,
2013-10-03 19:12:00,53.0,25.0,-100.00,NNW,348,10.0,32.0,33,0.00,,,0.00,382.000000,,2013-10-04 02:12:00,
2013-10-03 19:22:00,53.0,25.0,-100.00,NNW,348,10.0,32.0,33,0.00,,,0.00,382.000000,,2013-10-04 02:22:00,
2013-10-03 19:52:00,52.0,25.0,-100.00,NNW,348,5.0,22.0,34,0.00,,,0.00,46.000000,,2013-10-04 02:52:00,
2013-10-03 20:02:00,52.0,25.0,-100.00,NNW,348,5.0,22.0,34,0.00,,,0.00,46.000000,,2013-10-04 03:02:00,
2013-10-03 20:12:00,52.0,25.0,-100.00,NNW,348,5.0,22.0,34,0.00,,,0.00,46.000000,,2013-10-04 03:12:00,
2013-10-03 20:22:00,52.0,25.0,-100.00,NNW,348,5.0,22.0,34,0.00,,,0.00,46.000000,,2013-10-04 03:22:00,
2013-10-03 21:00:00,50.0,16.0,-100.00,East,98,8.0,15.0,25,0.00,,,0.00,1.000000,,2013-10-04 04:00:00,
2013-10-03 21:27:00,51.0,24.0,-100.00,WNW,291,5.0,15.0,35,0.00,,,0.00,0.000000,,2013-10-04 04:27:00,
2013-10-03 22:09:00,51.0,24.0,-100.00,WNW,291,5.0,15.0,35,0.00,,,0.00,0.000000,,2013-10-04 05:09:00,
2013-10-03 22:21:00,51.0,24.0,-100.00,WNW,291,5.0,15.0,35,0.00,,,0.00,0.000000,,2013-10-04 05:21:00,
2013-10-03 22:58:00,48.0,19.0,-100.00,NW,325,3.0,15.0,31,0.00,,,0.00,0.000000,,2013-10-04 05:58:00,
2013-10-03 23:06:00,48.0,19.0,-100.00,NW,325,3.0,15.0,31,0.00,,,0.00,0.000000,,2013-10-04 06:06:00,
2013-10-03 23:16:00,48.0,19.0,-100.00,NW,325,3.0,15.0,31,0.00,,,0.00,0.000000,,2013-10-04 06:16:00,
2013-10-03 23:24:00,48.0,19.0,-100.00,NW,325,3.0,15.0,31,0.00,,,0.00,0.000000,,2013-10-04 06:24:00,